Location: Newark
(25.0000°N, 73.5000°E)
Time: 10:43:32
(UTC+00:00)

Altair - Pass Details

Date: 08 March 2021
Orbit: 1501 x 1683 km, 47.2° (Epoch: 15 April)

Event Time Altitude Azimuth Distance (km) Brightness Sun altitude
Rises 12:48:54 0° 260° (W) 4,629 13.2 4.3°
Reaches altitude 10° 12:52:22 10° 270° (W) 3,646 12.0 3.5°
Maximum altitude 13:00:21 33° 331° (NNW) 2,332 8.8 1.7°
Drops below altitude 10° 13:08:28 10° 33° (NNE) 3,699 9.2 -0.1°
Sets 13:12:02 0° 43° (NE) 4,706 9.6 -0.9°
